{"data":{"norad_id":60321,"intl_designator":"2024-133W","name":"STARLINK-32198","alt_names":[],"object_type":"PAYLOAD","status":"ACTIVE","operator":null,"country":"US","launch_date":"2024-07-28","launch_site_code":"AFWTR","launch_vehicle":null,"mission":null,"orbit_class":"UNKNOWN","rcs_meters":null,"size_class":null,"mass_kg":null,"dimensions":null,"purposes":["comms"],"wikipedia_slug":null,"has_3d_model":false,"image_url":null,"decayed_at":null,"tle_current":{"epoch":"2026-05-25T03:09:55.806624Z","epoch_age_seconds":57643,"freshness":"FRESH","line1":"1 60321U 24133W   26145.13189591 -.00000651  00000+0 -98733-5 0  9998","line2":"2 60321  53.1616 302.0171 0001071  82.1204 277.9918 15.30186334103434","mean_motion":15.30186334,"eccentricity":0.0001071,"inclination_deg":53.1616,"raan_deg":302.0171,"arg_perigee_deg":82.1204,"mean_anomaly_deg":277.9918,"bstar":-9.8733e-6,"rev_number":10343,"period_min":94.106186155496,"perigee_km":474.52187555889,"apogee_km":475.98987231249,"semimajor_km":6853.3928739357,"source":"CELESTRAK","updated_at":"2026-05-25T13:38:19.232245Z"}}}